EN

Hourly Weather Abilene

Today, 24 November, Tuesday

Time Temperature Precipitation Wind Pressure Humidity
00:00 +14°C° 0 mm 11 mps 713 mmHg 85%
01:00 +16°C° 0 mm 11 mps 713 mmHg 82%
02:00 +17°C° 0 mm 11 mps 713 mmHg 79%
03:00 +17°C° 0 mm 11 mps 712 mmHg 78%
04:00 +17°C° 0 mm 11 mps 712 mmHg 78%
05:00 +17°C° 0 mm 11 mps 712 mmHg 77%
06:00 +17°C° 0 mm 11 mps 712 mmHg 76%
07:00 +18°C° 0 mm 12 mps 712 mmHg 75%
08:00 +18°C° 0 mm 12 mps 712 mmHg 74%
09:00 +21°C° 0 mm 11 mps 712 mmHg 65%
10:00 +23°C° 0 mm 11 mps 711 mmHg 57%
11:00 +24°C° 0 mm 11 mps 711 mmHg 48%
12:00 +26°C° 0 mm 11 mps 710 mmHg 41%
13:00 +27°C° 0 mm 11 mps 710 mmHg 33%
14:00 +28°C° 0 mm 11 mps 709 mmHg 25%
15:00 +26°C° 0 mm 9 mps 709 mmHg 23%
16:00 +24°C° 0 mm 8 mps 710 mmHg 21%
17:00 +22°C° 0 mm 6 mps 710 mmHg 19%
18:00 +21°C° 0 mm 7 mps 710 mmHg 18%
19:00 +21°C° 0 mm 8 mps 711 mmHg 17%
20:00 +20°C° 0 mm 8 mps 712 mmHg 16%
21:00 +18°C° 0 mm 8 mps 712 mmHg 19%
22:00 +16°C° 0 mm 9 mps 713 mmHg 23%
23:00 +15°C° 0 mm 9 mps 714 mmHg 27%

Tomorrow, 25 November, Wednesday

Time Temperature Precipitation Wind Pressure Humidity
00:00 +12°C° 0 mm 8 mps 714 mmHg 37%
01:00 +10°C° 0 mm 7 mps 714 mmHg 47%
02:00 +8°C° 0 mm 6 mps 715 mmHg 57%
03:00 +8°C° 0 mm 5 mps 715 mmHg 58%
04:00 +8°C° 0 mm 3 mps 716 mmHg 59%
05:00 +7°C° 0 mm 2 mps 716 mmHg 60%
06:00 +8°C° 0 mm 3 mps 717 mmHg 54%
07:00 +9°C° 0 mm 3 mps 717 mmHg 48%
08:00 +10°C° 0 mm 4 mps 718 mmHg 43%
09:00 +12°C° 0 mm 3 mps 718 mmHg 36%
10:00 +14°C° 0 mm 3 mps 718 mmHg 30%
11:00 +17°C° 0 mm 3 mps 718 mmHg 24%
12:00 +18°C° 0 mm 2 mps 717 mmHg 23%
13:00 +19°C° 0 mm 2 mps 717 mmHg 23%
14:00 +19°C° 0 mm 2 mps 716 mmHg 22%
15:00 +17°C° 0 mm 2 mps 715 mmHg 26%
16:00 +15°C° 0 mm 1 mps 715 mmHg 31%
17:00 +13°C° 0 mm 1 mps 715 mmHg 35%
18:00 +14°C° 0 mm 2 mps 715 mmHg 35%
19:00 +14°C° 0 mm 2 mps 715 mmHg 35%
20:00 +13°C° 0 mm 3 mps 715 mmHg 34%
21:00 +12°C° 0 mm 3 mps 715 mmHg 36%
22:00 +12°C° 0 mm 4 mps 715 mmHg 37%
23:00 +12°C° 0 mm 4 mps 715 mmHg 39%

Day after tomorrow, 26 November, Thursday

Time Temperature Precipitation Wind Pressure Humidity
00:00 +12°C° 0 mm 5 mps 714 mmHg 41%
01:00 +10°C° 0 mm 5 mps 714 mmHg 43%
02:00 +10°C° 0 mm 6 mps 714 mmHg 45%
03:00 +10°C° 0 mm 6 mps 714 mmHg 45%
04:00 +10°C° 0 mm 6 mps 714 mmHg 46%
05:00 +10°C° 0 mm 6 mps 714 mmHg 46%
06:00 +12°C° 0 mm 7 mps 714 mmHg 42%
07:00 +14°C° 0 mm 7 mps 714 mmHg 39%
08:00 +15°C° 0 mm 8 mps 714 mmHg 36%
09:00 +18°C° 0 mm 8 mps 714 mmHg 32%
10:00 +21°C° 0 mm 8 mps 714 mmHg 27%
11:00 +24°C° 0 mm 8 mps 714 mmHg 23%
12:00 +26°C° 0 mm 7 mps 714 mmHg 21%
13:00 +27°C° 0 mm 7 mps 713 mmHg 19%
14:00 +28°C° 0 mm 7 mps 712 mmHg 17%
15:00 +26°C° 0 mm 6 mps 712 mmHg 21%
16:00 +22°C° 0 mm 5 mps 712 mmHg 24%
17:00 +20°C° 0 mm 4 mps 712 mmHg 28%
18:00 +19°C° 0 mm 4 mps 713 mmHg 28%
19:00 +18°C° 0 mm 4 mps 713 mmHg 28%
20:00 +18°C° 0 mm 3 mps 713 mmHg 29%
21:00 +16°C° 0 mm 3 mps 714 mmHg 31%
22:00 +14°C° 0 mm 3 mps 714 mmHg 32%
23:00 +13°C° 0 mm 3 mps 714 mmHg 34%

27 November, Friday

Time Temperature Precipitation Wind Pressure Humidity
00:00 +12°C° 0 mm 4 mps 715 mmHg 37%
01:00 +11°C° 0 mm 4 mps 715 mmHg 40%
02:00 +10°C° 0 mm 4 mps 715 mmHg 43%
03:00 +8°C° 0 mm 4 mps 716 mmHg 45%
04:00 +8°C° 0 mm 5 mps 716 mmHg 47%
05:00 +7°C° 0 mm 5 mps 716 mmHg 49%
06:00 +7°C° 0 mm 6 mps 717 mmHg 49%
07:00 +8°C° 0 mm 7 mps 718 mmHg 50%
08:00 +8°C° 0 mm 7 mps 718 mmHg 50%
09:00 +9°C° 0 mm 7 mps 718 mmHg 49%
10:00 +10°C° 0 mm 7 mps 719 mmHg 47%
11:00 +11°C° 0 mm 7 mps 719 mmHg 46%
12:00 +12°C° 0 mm 7 mps 719 mmHg 45%
13:00 +12°C° 0 mm 8 mps 719 mmHg 44%
14:00 +13°C° 0 mm 8 mps 718 mmHg 43%
15:00 +12°C° 0 mm 7 mps 719 mmHg 45%
16:00 +11°C° 0 mm 6 mps 719 mmHg 47%
17:00 +10°C° 0 mm 5 mps 720 mmHg 48%
18:00 +9°C° 0 mm 5 mps 720 mmHg 48%
19:00 +8°C° 0 mm 5 mps 721 mmHg 47%
20:00 +7°C° 0 mm 5 mps 721 mmHg 46%
21:00 +6°C° 0 mm 5 mps 721 mmHg 48%
22:00 +6°C° 0 mm 4 mps 722 mmHg 49%
23:00 +5°C° 0 mm 4 mps 722 mmHg 50%

28 November, Saturday

Time Temperature Precipitation Wind Pressure Humidity
00:00 +5°C° 0 mm 4 mps 722 mmHg 51%
01:00 +4°C° 0 mm 4 mps 722 mmHg 52%
02:00 +4°C° 0 mm 3 mps 722 mmHg 53%
03:00 +3°C° 0 mm 3 mps 722 mmHg 54%
04:00 +3°C° 0 mm 3 mps 722 mmHg 54%
05:00 +3°C° 0 mm 2 mps 722 mmHg 55%
06:00 +5°C° 0 mm 2 mps 723 mmHg 52%
07:00 +6°C° 0 mm 2 mps 723 mmHg 49%
08:00 +7°C° 0 mm 2 mps 723 mmHg 45%
09:00 +9°C° 0 mm 2 mps 723 mmHg 39%
10:00 +11°C° 0 mm 3 mps 723 mmHg 33%
11:00 +13°C° 0 mm 3 mps 723 mmHg 27%
12:00 +13°C° 0 mm 3 mps 722 mmHg 25%
13:00 +14°C° 0 mm 3 mps 721 mmHg 23%
14:00 +16°C° 0 mm 3 mps 720 mmHg 21%
15:00 +13°C° 0 mm 2 mps 720 mmHg 25%
16:00 +11°C° 0 mm 1 mps 719 mmHg 30%
17:00 +9°C° 0 mm 1 mps 718 mmHg 34%
18:00 +9°C° 0 mm 1 mps 719 mmHg 33%
19:00 +8°C° 0 mm 2 mps 719 mmHg 32%
20:00 +8°C° 0 mm 3 mps 719 mmHg 31%
21:00 +8°C° 0 mm 3 mps 719 mmHg 32%
22:00 +8°C° 0 mm 3 mps 719 mmHg 33%
23:00 +7°C° 0 mm 4 mps 718 mmHg 34%

29 November, Sunday

Time Temperature Precipitation Wind Pressure Humidity
00:00 +6°C° 0 mm 4 mps 718 mmHg 35%
01:00 +6°C° 0 mm 4 mps 718 mmHg 36%
02:00 +6°C° 0 mm 4 mps 717 mmHg 38%
03:00 +5°C° 0 mm 3 mps 717 mmHg 38%
04:00 +5°C° 0 mm 3 mps 717 mmHg 38%
05:00 +5°C° 0 mm 3 mps 717 mmHg 37%
06:00 +6°C° 0 mm 4 mps 718 mmHg 36%
07:00 +8°C° 0 mm 4 mps 718 mmHg 34%
08:00 +10°C° 0 mm 4 mps 719 mmHg 32%
09:00 +12°C° 0 mm 5 mps 719 mmHg 29%
10:00 +14°C° 0 mm 5 mps 720 mmHg 25%
11:00 +17°C° 0 mm 6 mps 720 mmHg 22%
12:00 +16°C° 0 mm 7 mps 720 mmHg 24%
13:00 +16°C° 0 mm 8 mps 720 mmHg 26%
14:00 +16°C° 0 mm 8 mps 720 mmHg 27%
15:00 +13°C° 0 mm 8 mps 721 mmHg 30%
16:00 +11°C° 0 mm 7 mps 721 mmHg 32%
17:00 +10°C° 0 mm 6 mps 722 mmHg 34%
18:00 +8°C° 0 mm 6 mps 723 mmHg 35%
19:00 +7°C° 0 mm 6 mps 724 mmHg 36%
20:00 +5°C° 0 mm 6 mps 725 mmHg 37%
21:00 +5°C° 0 mm 6 mps 725 mmHg 37%
22:00 +4°C° 0 mm 6 mps 725 mmHg 36%
23:00 +3°C° 0 mm 6 mps 726 mmHg 36%
Show more